Location: Unspecified
(0.0000°N, 0.0000°E)
Time: 09:38:17
(UTC+00:00)

Courier 1B Rocket - Pass Details

Date: 22 December 2018
Orbit: 920 x 1202 km, 28.3° (Epoch: 17 January)

Event Time Altitude Azimuth Distance (km) Brightness Sun altitude
Rises 02:48:55 0° 245° (WSW) 3,743 - -42.5°
Reaches altitude 10° 02:51:42 10° 247° (WSW) 2,751 - -41.9°
Maximum altitude 02:58:16 69° 329° (NNW) 1,012 - -40.5°
Drops below altitude 10° 03:04:30 10° 52° (NE) 2,613 - -39.1°
Exits shadow 03:04:37 10° 52° (NE) 2,650 7.4 -39.1°
Sets 03:07:05 0° 55° (NE) 3,544 8.2 -38.6°
